www.pogodaiklimat.ru

Погода и климат >> Архив погоды >> Мали >> Kita


ПОГОДА в Kita

  • Прогноз погоды в Kita
  • Монитор погоды в Kita
  • Климат города

АРХИВ ПОГОДЫ в Kita

Время (UTC), дата Ветер
(напр.,м/с)
 
Видим.   Явления Облачность Т
(С)
Тd
(С)
f
(%)
Тe
(С)
Тes
(С)
Комфортность P
(гПа)
Po
(гПа)
Тmin
(С)
Tmax
(С)
R
(мм)
R24
(мм)
S
(см)
06 19.06 штиль 0 10 км ясно +27.8 +22.3 72 +36 +36 очень
душно
1009.2 972.7 +27.4
09 19.06 СЗ 3 10 км ясно +31.5 +20.4 52 +38 +45 очень
душно
1010.1 973.7
12 19.06 С 2 10 км ясно +35.4 +20.9 43 +42 +63 опасность
перегрева
1008.9 972.6
15 19.06 штиль 0 10 км ясно +37.8 +20.2 36 +44 +64 опасность
перегрева
1007.0 970.8
18 19.06 штиль 0 10 км 5/0
[Ac lent Ci sp]
+37.5 +20.3 37 +43 +45 опасность
перегрева
1006.0 969.8 +38.8
21 19.06 ЮВ 4 10 км гроза без осадков 9/4 900 м
[Cb cap Ac As Ci sp]
+29.0 +20.0 58 +35 +35 очень
душно
1009.6 973.0
00 20.06 В 3 10 км гроза, ливневой дождь 10/5 900 м
[Cb cap Ac As]
+25.0 +22.6 87 +33 +33 очень
душно
1012.5 975.7 6
03 20.06 ЮЗ 2 10 км гроза без осадков {дождь} 10/5 900 м
[Cb cap Ac As]
+24.5 +21.7 84 +31 +31 очень
душно
1009.5 973.0
06 20.06 ЮЗ 4 10 км {гроза} 9/1 900 м
[Sc Ac As]
+25.5 +20.0 72 +31 +31 очень
душно
1009.5 973.1 +22.1 25
09 20.06 штиль 0 10 км 6/1 900 м
[Sc Ac lent Ci sp]
+27.6 +20.7 66 +34 +42 очень
душно
1011.3 974.3
12 20.06 З 2 10 км 9/1 900 м
[Sc Ac lent Ci sp]
+30.3 +22.2 62 +39 +50 очень
душно
1010.0 973.1
15 20.06 З 2 10 км 6/0
[Ac lent Ci sp]
+33.4 +21.5 50 +41 +51 опасность
перегрева
1008.3 971.6
18 20.06 З 3 10 км 9/0
[Ac As]
+33.2 +22.4 53 +42 +43 опасность
перегрева
1006.7 970.0 +34.9
21 20.06 штиль 0 10 км 6/0
[Ac As Ci sp]
+29.0 +23.3 71 +39 +39 очень
душно
1009.8 972.9
00 21.06 штиль 0 10 км 6/0
[Ac As Ci sp]
+27.0 +22.6 77 +36 +36 очень
душно
1010.4 973.6
03 21.06 штиль 0 10 км {гроза} 8/1 900 м
[Sc Ac As Ci sp]
+26.0 +23.1 84 +35 +35 очень
душно
1009.2 972.5
06 21.06 штиль 0 10 км {гроза} 9/5 900 м
[Sc Ac As Ci sp]
+25.5 +23.3 88 +34 +34 очень
душно
1009.7 972.9 +25.0
09 21.06 штиль 0 10 км гроза без осадков {дождь} 9/5 900 м
[Cb cap Ac As]
+26.0 +23.8 88 +36 +38 очень
душно
1011.2 974.2
12 21.06 Ю 2 10 км гроза, ливневой дождь 10/6 900 м
[Cb cap Ac As]
+24.9 +23.6 92 +34 +36 очень
душно
1012.5 975.2 9
15 21.06 Ю 3 10 км слабый дождь {гроза} 10/9 600 м
[Frnb Ac As]
+24.0 +22.5 91 +31 +32 очень
душно
1010.4 973.2
18 21.06 Ю 2 10 км {гроза, дождь} 10/9 600 м
[Frnb Ac As]
+24.6 +23.0 91 +33 +33 очень
душно
1010.9 973.7 +25.9 10
21 21.06 штиль 0 10 км 10/9 600 м
[Frnb Ac As]
+24.6 +23.0 91 +33 +33 очень
душно
1012.9 975.5
00 22.06 штиль 0 10 км 9/3 600 м
[Frnb Ac As Ci sp]
+24.5 +23.4 94 +33 +33 очень
душно
1013.4 975.9
03 22.06 штиль 0 10 км 9/3 900 м
[Sc Ac As Ci sp]
+24.0 +23.2 95 +32 +32 очень
душно
1012.6 975.1
06 22.06 штиль 0 10 км 6/1 600 м
[Frnb Ac lent Ci sp]
+23.9 +22.6 92 +31 +31 очень
душно
1012.9 975.4 +23.1 10
09 22.06 Ю 2 10 км 8/3 900 м
[Sc Ac lent Ci sp]
+25.8 +22.9 84 +34 +38 очень
душно
1014.6 977.1
12 22.06 штиль 0 10 км 8/5 900 м
[Sc Ci sp]
+29.0 +23.3 71 +39 +52 опасность
солнечного
удара
1014.0 976.8
15 22.06 штиль 0 10 км 8/5 900 м
[Sc Ci sp]
+31.9 +23.0 59 +42 +51 опасность
перегрева
1011.8 974.8
18 22.06 ЮЗ 2 10 км 5/1 900 м
[Sc Ac lent Ci sp]
+32.0 +23.5 61 +43 +44 опасность
перегрева
1009.9 973.0 +32.6
21 22.06 штиль 0 10 км 5/1 900 м
[Sc Ac lent Ci sp]
+29.4 +25.3 79 +43 +43 опасность
перегрева
1012.3 975.2
00 23.06 штиль 0 10 км 3/0
[Ci sp]
+27.6 +25.2 87 +40 +40 очень
душно
1013.1 976.0
03 23.06 штиль 0 10 км 3/0
[Ci sp]
+26.5 +24.6 89 +37 +37 очень
душно
1012.0 975.1
06 23.06 штиль 0 10 км 6/1 900 м
[Sc Ac As Ci sp]
+25.7 +24.1 91 +36 +36 очень
душно
1012.3 975.3 +25.2
09 23.06 СЗ 2 10 км 5/0
[Ac lent Ci sp]
+30.4 +24.2 70 +42 +48 опасность
перегрева
1013.1 976.2
12 23.06 штиль 0 10 км 5/3 900 м
[Sc Ac lent Ci sp]
+33.3 +24.5 60 +46 +63 опасность
перегрева
1012.4 975.6
15 23.06 ЮЗ 2 10 км 5/3 900 м
[Sc Ac lent Ci sp]
+35.5 +24.5 53 +48 +57 опасность
перегрева
1010.3 973.8
18 23.06 СЗ 2 10 км 1/1 900 м
[Sc Ci sp]
+35.8 +24.5 52 +48 +49 опасность
перегрева
1008.4 971.8 +36.5
21 23.06 штиль 0 10 км зарница {гроза} 8/4 900 м
[Cb cap Ac lent Ci sp]
+33.0 +25.4 64 +47 +47 опасность
перегрева
1008.1 971.7
00 24.06 штиль 0 10 км гроза без осадков {дождь} 9/5 900 м
[Cb cap Ac As Ci sp]
+26.1 +23.0 83 +35 +35 очень
душно
1010.9 974.1 18
03 24.06 штиль 0 10 км слабый дождь {гроза} 9/4 900 м
[Sc Ac As Ci sp]
+25.9 +23.9 89 +36 +36 очень
душно
1008.4 971.8
06 24.06 ЮВ 2 10 км {гроза, дождь} 9/4 900 м
[Sc Ac As Ci sp]
+24.4 +23.8 96 +33 +33 очень
душно
1009.6 973.0 +22.5 20
09 24.06 штиль 0 10 км 9/4 900 м
[Sc Ac As]
+26.0 +21.9 78 +33 +36 очень
душно
1008.6 971.9
12 24.06 З 3 10 км {гроза} 9/1 900 м
[Sc Ac lent Ci sp]
+30.3 +24.1 69 +42 +50 опасность
перегрева
1010.1 973.3
15 24.06 ЮВ 3 10 км 9/5 900 м
[Sc Ac As Ci sp]
+32.1 +21.4 53 +40 +44 очень
душно
1008.9 972.1
18 24.06 З 2 10 км 8/1 900 м
[Sc Ci sp]
+31.2 +23.8 65 +43 +44 опасность
перегрева
1007.3 970.4 +32.5
21 24.06 Ю 2 10 км 6/0
[Ci sp]
+28.9 +23.9 74 +40 +40 очень
душно
1008.3 971.3
00 25.06 СВ 3 10 км гроза, ливневой дождь 9/8 900 м
[Cb cap Ac As]
+22.1 +20.7 92 +28 +28 душно 1014.0 976.7 6
03 25.06 ЮЗ 2 10 км в посл. час дождь {гроза} 10/6 600 м
[Frnb Ac As]
+22.5 +21.3 93 +30 +30 очень
душно
1009.7 972.7
06 25.06 штиль 0 10 км {гроза, дождь} 9/4 900 м
[Sc Ac As]
+22.5 +21.0 91 +29 +29 очень
душно
1008.9 971.9 +21.1 18
09 25.06 ЮЗ 2 10 км 9/1 900 м
[Sc Ac lent Ci sp]
+25.8 +22.1 80 +33 +38 очень
душно
1010.2 973.3
12 25.06 штиль 0 10 км 9/3 900 м
[Sc Ac As]
+28.7 +23.4 73 +39 +47 очень
душно
1011.9 974.5
15 25.06 ЮЗ 2 10 км 8/4 900 м
[Sc Ac lent Ci sp]
+31.7 +23.8 63 +43 +49 опасность
перегрева
1009.2 972.2
18 25.06 З 2 10 км 6/1 900 м
[Cu med, cong Ci sp]
+31.8 +23.3 61 +43 +44 опасность
перегрева
1008.5 971.5 +32.3
21 25.06 ЮЗ 2 10 км зарница 6/4 900 м
[Cb cap Ac lent Ci sp]
+29.5 +23.6 71 +40 +40 очень
душно
1010.6 973.7
00 26.06 штиль 0 10 км 8/1 900 м
[Sc Ci sp]
+26.5 +21.0 72 +33 +33 очень
душно
1012.5 975.4

 

Местоположение метеостанции Kita (Мали): широта 13.07 долгота -9.47 высота над уровнем моря 334 м.

В архиве по умолчанию представлена погода в Kita за последнюю неделю. Архивные данные за месяц целиком и за предыдущие месяцы, начиная с января 2011 года, Вы можете получить, выбрав интересующий диапазон дат из раскрывающегося списка и нажав кнопку "Ввод!".

Внимание! Время в таблицах - всемирное. Для получения местного времени необходимо прибавить поправку, которая в Kita равна 0 ч.

Смотрите также архив погоды в соседних городах и на ближайших метеорологических станциях:

Погода в Bamako (Мали) (175 км)
Погода в Kenieba (Мали) (192 км)
Погода в Nioro Du Sahel (Мали) (241 км)
Погода в Yelimane (Мали) (257 км)
Погода в Kayes (Мали) (260 км)
Погода в Bougouni (Мали) (282 км)
Погода в Kedougou (Сенегал) (302 км)
Погода в Nara (Мали) (332 км)
Погода в Segou (Мали) (361 км)
Погода в Aioun el Atrouss (Мавритания) (404 км)

Пояснения к столбцам:

Ветер - указаны скорость ветра в м/с - средняя за 10 мин, порывы в срок и между сроками (в фигурных скобках) и направление, откуда дует ветер: С - северный, СВ - северо-восточный, В - восточный, ЮВ - юго-восточный, Ю - южный, ЮЗ - юго-западный, З - западный, СЗ - северо-западный.
Видимость - горизонтальная дальность видимости в метрах или километрах. При видимости от 1 до 10 км при отсутствии осадков обычно наблюдается дымка, при ухудшении видимости до 1 км и менее - туман. В сухую погоду видимость может ухудшаться дымом, пылью или мглою.
Явления - указаны атмосферные явления, наблюдавшиеся в срок или в последний час перед сроком; фигурными скобками обозначены явления, наблюдавшиеся между сроками (за 1-3 часа до срока); квадратными скобками обозначены град или гололедные отложения с указанием их диаметра в мм.
Облачность - указаны через наклонную черту общая и нижняя облачность в баллах и высота нижней границы облаков в метрах; квадратными скобками обозначены формы облаков: Ci - перистые, Cs - перисто-слоистые, Cc - перисто-кучевые, Ac - высококучевые, As - высокослоистые, Sc - слоисто-кучевые, Ns - слоисто-дождевые, Cu - кучевые, Cb - кучево-дождевые. Подробнее классификацию облаков см. в Атласе облаков (PDF).
T - Температура воздуха - температура, измеренная на высоте 2 м над землей.
Td - Температура точки росы - температура, при понижении до которой содержащийся в воздухе водяной пар достигнет насыщения.
f - Относительная влажность воздуха - влажноcть воздуха, измеренная на высоте 2 м над землей.
Te - Эффективная температура - температура, которую ощущает одетый по сезону человек в тени. Характеристика душности погоды. При расчете учитывается влияние влажности воздуха и скорости ветра на теплоощущения человека.
Tes - Эффективная температура на солнце - температура, которую ощущает человек, с поправкой на солнечный нагрев. Характеристика знойности погоды. Зависит от высоты солнца над горизонтом, облачности и скорости ветра. Ночью, в пасмурную погоду, а также при ветре 12 м/с и более поправка равна нулю.
P - Атмосферное давление - приведенное к уровню моря атмосферное давление.
Po - Атмосферное давление - измеренное на уровне метеостанции атмосферное давление.
Tmin - Минимальная температура - минимум температуры воздуха на высоте 2 м над землей.
Tmax - Максимальная температура - максимум температуры воздуха на высоте 2 м над землей.
R - Количество осадков - Количество выпавших осадков за период времени, мм. При наведении курсора мыши на число - период времени, за который выпало указанное количество осадков.
R24 - Количество осадков - Количество выпавших осадков за 24 часа, мм.
S - Снежный покров - Высота снежного покрова, см. При наведении курсора мыши на число - состояние снежного покрова и степень покрытия местности в баллах.